Showing default

SNAPPY, 69014

Orbit data source: Space-Track

SNAPPY, 69014 is an American payload satellite in SSO that was launched on Sun, 03 May 2026 UTC via an FALCON 9 launch vehicle from the Air Force Western Test Range (AFWTR). Payload-class satellites include a variety of spacecraft equipped with specific instruments for various scientific and technological missions. These include communications satellites like Starlink; space stations such as the ISS; scientific satellites like the Hubble; Earth observation satellites from companies like Planet Labs, Umbra, and HawkEye 360; GPS; miniature CubeSats for education and research; and military/defense satellites.

Loading next visibility...
Identifier
69014, 2026-100AL
Orbit
SSO
Country
Flag of USUS
Related business
None
Manufacturer
Unknown
Mission
Operational Commercial Technology
Bus & Motor
Unknown
Mass
Unknown
Launch date (UTC)
2026-05-03 (4 months ago)
Launch vehicle
FALCON 9
Launch site
Air Force Western Test Range (AFWTR)
Object type
Payload
Rocket body
Debris
Shape & HBR
Box, 0.2 m
Radar Cross Section
0.035 m², Medium (>0.1 m² and < 1m²)

Expand to show TLE details & history
Last TLE update: 1 day ago

TLE from 1 day ago
0 SNAPPY
1 69014U 26100AL  26254.68602721  .00002905  00000-0  13117-3 0  9992
2 69014  97.3941 151.1254 0007693 108.3515 251.8558 15.21739679 19961
Epoch: 2026-09-11T16:27Z
TLE epoch observation values (Epoch: 2026-09-11T16:27:52.750Z)
Latitude
-0.00009°
Longitude
-86.5502°
Altitude
505.338 km
Speed
7.611 km/s
True Right ascension
10h 04m 30s
True Declination
0° 00' 00"
Sunlit
Object was in daylight at epoch
Visualization orbit readout
Latitude
Unknown
Longitude
Unknown
Altitude
Unknown
Speed
Unknown
Apparent Right ascension
Unknown
Apparent Declination
Unknown
Sunlit
N/A
Visualization observer readout
Local Sidereal Time
09:57:15
Azimuth
Unknown
Elevation
Unknown
Doppler factor
Unknown
Orbital elements
Apogee altitude
502.845 km
Perigee altitude
492.267 km
Semi-major axis
6,875.693 km
Eccentricity
0.00077
Inclination
97.3941°
RAAN
151.1254°
Arg. of periapsis
108.3515°
True anomaly
251.77205°
Mean anomaly
251.8558°
Eccentric anomaly
251.81392°
Mean motion
3.80687 °/min
Orbital period
94.57 mins
BSTAR
0.00013117
Loading maneuver chart data...
Computing Atmospheric mass density...
Loading historical data...
Loading historical data...
Loading historical data...
Loading historical data...
Loading historical data...
Loading historical data...
Loading historical data...

Documentation

Showing up to 5 results
|